Theta_e
326 325 325 324 324 325 326 326 326 326 326 325 324 323 322 323 322 314 304 311 314 326 319 310 309 309 310 308 307 307 303 299 299 300 301 304 303 304 306 307 311 314 312 320 335
326 325 325 325 324 325 326 325 325 325 324 324 323 323 323 322 310 306 318 323 325 327 309 308 305 307 305 305 305 306 302 301 302 303 303 304 305 305 304 305 306 309 315 326 334
324 324 324 324 324 324 325 324 324 324 322 323 322 322 322 319 304 303 323 326 327 322 310 309 308 305 302 304 303 303 300 301 300 301 303 304 302 305 305 303 307 307 313 326 328
323 324 324 324 324 324 325 324 323 322 321 321 321 321 320 314 294 309 325 328 329 313 308 306 305 303 301 300 300 300 299 301 301 302 301 302 304 302 305 306 305 309 316 326 326
321 322 322 323 323 324 324 324 323 322 321 321 321 321 314 302 301 312 323 323 316 309 306 305 303 302 299 300 299 300 299 299 300 301 301 301 301 302 302 306 305 305 317 325 327
320 320 321 321 322 323 323 324 322 321 321 320 321 321 305 295 309 314 313 308 309 308 306 306 304 304 300 298 299 299 300 299 299 299 300 300 299 300 302 302 303 308 313 322 326
320 320 320 320 321 322 322 323 322 321 321 320 321 313 303 300 311 313 310 308 308 308 305 306 306 303 302 298 299 299 296 298 298 298 298 300 296 298 301 300 301 305 310 317 324
320 319 319 319 320 322 322 322 321 321 321 322 322 311 298 308 312 309 309 307 308 308 308 308 307 304 301 301 298 296 297 294 295 298 298 299 296 297 300 299 301 302 306 311 318
319 318 318 319 319 320 321 321 320 320 320 322 311 304 296 313 306 308 308 306 306 307 307 306 307 301 300 298 295 294 291 292 292 297 297 296 295 296 299 299 300 301 302 304 308
318 318 318 318 319 319 320 320 321 321 319 314 309 300 300 300 306 306 307 307 305 305 304 303 302 299 298 296 289 290 290 290 292 295 295 294 295 297 300 299 301 301 302 303 303
318 318 318 318 319 320 319 316 306 304 309 299 299 296 297 305 306 303 306 304 304 302 297 298 296 293 296 297 295 294 293 291 291 294 295 295 295 298 300 299 300 302 303 303 303
318 318 318 319 319 319 316 305 303 306 296 305 304 302 303 305 299 301 305 301 300 294 297 295 292 296 297 294 293 293 292 290 292 293 294 293 294 298 299 299 302 302 303 301 300
317 317 318 318 318 316 311 307 312 307 295 297 303 300 302 303 298 299 302 299 297 294 295 292 294 296 294 292 292 291 291 289 291 291 291 291 293 295 296 296 297 297 299 299 299
317 317 318 318 312 312 308 315 316 312 289 291 297 301 302 302 297 301 302 299 295 294 294 294 293 293 293 292 294 289 292 292 290 290 287 290 286 292 293 294 294 297 299 299 299
317 317 318 317 311 307 309 315 316 305 279 293 295 304 303 298 298 298 302 298 293 292 294 291 291 291 291 292 294 291 293 292 290 289 289 288 287 291 290 292 294 297 298 298 299
317 317 317 312 312 311 315 315 308 288 279 289 295 295 295 295 295 297 298 299 297 293 292 292 294 294 294 291 293 293 292 291 290 289 283 288 288 289 292 292 293 296 297 298 299
316 316 315 312 306 314 316 308 288 281 290 289 289 294 293 292 293 294 293 292 291 287 287 290 290 293 294 291 292 292 291 284 283 282 282 285 284 290 293 292 295 297 297 297 297
316 315 314 310 312 313 307 293 281 287 287 294 292 293 288 291 291 292 292 289 292 291 288 286 283 291 294 292 290 291 291 285 279 279 283 284 283 289 292 294 296 298 298 297 297
316 313 309 309 312 311 297 284 285 288 292 292 291 288 288 291 291 291 290 290 292 292 287 285 286 292 292 293 294 289 287 291 283 279 283 286 288 293 293 294 294 295 295 296 296
311 308 305 312 312 306 291 287 289 293 295 294 287 290 286 288 288 290 289 293 292 293 293 290 284 290 291 294 293 292 293 286 287 280 279 283 284 288 289 292 294 294 295 295 295
301 300 306 312 308 297 285 288 291 295 297 292 290 288 290 288 290 289 289 291 294 292 294 291 290 287 291 289 289 288 287 287 289 287 283 280 285 292 294 295 294 295 296 295 295
294 286 302 310 292 293 288 292 295 295 297 295 295 292 290 290 289 289 289 292 295 294 289 292 290 286 287 291 294 291 290 290 286 283 285 283 285 292 293 297 297 296 295 296 295
286 288 300 305 285 286 289 292 295 294 295 294 293 294 293 290 287 290 290 294 294 294 292 292 289 283 284 288 291 289 289 291 291 289 285 284 286 292 293 295 296 295 294 293 293
288 285 287 293 292 291 287 289 289 297 296 296 294 295 293 290 293 290 290 295 294 295 296 295 289 287 283 286 290 287 288 288 288 286 286 286 289 290 291 293 294 295 295 293 292
287 285 285 283 285 290 291 290 289 290 296 296 292 295 293 289 290 289 292 293 295 296 295 294 286 288 290 289 290 289 289 288 287 289 285 289 288 292 294 294 295 296 294 292 292
286 286 286 286 289 289 289 288 289 290 293 292 292 293 295 292 292 289 292 292 292 295 293 293 288 287 283 288 289 287 289 290 290 290 290 290 289 295 297 297 296 293 292 291 291
290 289 289 285 285 286 286 287 289 291 290 294 295 294 293 294 296 297 297 298 296 293 291 291 286 286 284 286 287 284 287 289 290 292 291 287 292 295 293 293 294 293 293 292 293
Wind_Speed
18 19 18 15 13 13 12 11 10 10 9 9 9 9 8 6 6 4 6 5 5 4 6 4 1 2 3 4 1 3 3 5 6 9 8 10 7 2 1 5 2 2 2 4 16
18 18 19 16 14 12 12 11 9 8 9 9 8 9 8 9 4 9 6 7 8 12 6 9 6 5 3 4 3 3 2 6 3 4 7 12 7 11 6 6 5 5 3 6 13
18 16 17 18 15 14 12 12 8 7 8 8 7 8 7 6 4 6 4 9 8 9 2 3 4 3 2 3 4 3 4 5 4 2 4 11 6 5 7 6 6 9 11 12 13
17 16 15 16 17 15 13 11 11 7 6 7 7 8 6 4 7 2 1 10 8 7 8 5 6 6 5 8 2 5 4 4 6 4 5 9 9 6 7 3 3 4 11 16 17
17 15 15 15 16 17 12 11 12 10 9 8 6 7 5 4 5 2 6 7 8 8 10 8 9 5 5 6 4 3 7 5 6 7 5 6 3 1 6 5 3 5 11 15 16
17 15 15 14 14 16 15 12 12 9 9 9 6 6 3 7 2 4 6 6 6 8 8 8 8 3 5 5 2 4 8 10 3 6 5 3 2 1 3 1 5 5 9 12 15
18 18 16 15 14 14 15 13 11 11 9 8 7 3 2 5 1 4 5 3 3 4 7 4 5 2 5 6 4 9 7 5 3 2 4 2 3 7 3 1 6 8 7 10 13
20 19 17 16 12 14 15 14 11 8 9 7 6 1 4 1 2 5 4 3 3 1 2 5 5 7 1 7 4 6 3 7 3 3 1 6 9 3 2 5 6 7 8 8 12
23 20 19 19 14 14 14 14 12 9 6 8 4 1 4 2 3 3 2 6 5 2 3 3 4 4 4 9 5 1 8 6 5 1 2 6 4 2 1 1 8 8 7 9 9
20 23 19 20 18 17 16 12 12 9 6 3 2 3 4 5 4 5 1 7 4 6 5 1 3 6 5 9 12 7 7 3 5 5 2 4 9 4 4 3 5 6 7 8 9
24 22 23 21 21 22 17 11 10 5 4 2 5 1 4 3 1 2 3 6 4 4 8 1 9 14 16 8 4 8 8 6 3 2 4 9 12 10 7 6 8 10 8 8 7
25 23 24 23 24 24 13 7 7 6 6 5 1 1 1 2 4 4 5 8 8 11 7 6 13 7 9 9 8 6 9 6 4 2 3 1 11 11 9 8 12 11 9 7 4
26 25 25 27 25 17 13 5 3 4 6 2 3 3 4 5 4 13 11 5 9 11 13 11 5 12 10 9 11 4 8 5 4 4 2 3 8 9 4 5 5 3 3 2 3
27 26 27 29 18 17 10 7 4 2 5 6 7 6 4 4 3 2 4 3 3 13 11 7 3 11 8 9 10 8 5 8 10 5 4 2 5 5 4 8 6 5 4 3 2
26 30 30 25 13 13 9 7 5 2 6 10 7 2 5 7 10 4 2 2 9 8 8 7 11 14 10 8 9 3 8 7 4 4 1 3 5 4 1 8 10 7 5 4 3
32 31 32 9 9 14 12 7 4 4 10 8 7 10 10 4 3 5 4 5 4 5 3 4 2 3 2 5 3 14 11 8 4 2 5 7 9 7 7 6 3 5 5 5 4
30 34 27 11 12 13 12 4 7 12 6 10 9 11 19 10 4 8 16 13 11 9 10 3 4 1 3 10 7 4 12 4 4 5 6 2 5 15 5 5 3 10 9 5 3
31 31 22 6 15 15 8 7 7 10 9 3 7 11 13 12 5 7 16 17 13 8 8 13 9 11 6 4 10 14 10 7 8 7 4 2 10 6 1 3 1 8 10 7 5
36 16 11 11 17 12 14 12 14 11 13 10 15 18 11 10 8 12 15 17 18 17 12 10 9 1 1 3 11 8 10 3 8 2 1 6 6 10 6 5 7 10 10 9 7
14 15 11 21 23 14 12 12 7 6 13 16 12 13 20 20 13 18 18 16 10 14 3 8 5 1 2 3 1 7 13 5 1 7 6 6 7 11 8 14 12 13 13 11 8
2 11 9 21 17 13 17 15 4 2 9 14 8 8 12 15 16 15 16 6 16 14 8 6 4 3 5 9 13 6 7 2 2 3 5 4 8 7 16 19 21 17 14 13 11
4 5 2 15 14 15 15 19 7 7 2 3 4 6 11 15 15 14 21 12 14 16 17 5 6 6 9 2 4 2 11 14 7 10 5 1 10 2 6 12 14 16 14 12 10
2 2 2 13 13 20 5 14 10 9 7 8 5 3 3 11 10 15 10 4 11 17 18 11 5 5 3 2 3 9 7 15 12 4 8 7 14 3 2 8 13 18 16 14 13
2 3 2 2 2 17 11 14 13 7 8 4 6 5 7 8 8 15 12 1 6 11 6 13 3 15 17 17 9 11 12 11 13 5 15 13 29 5 6 11 13 16 17 16 14
2 2 0 5 5 13 14 16 14 11 7 7 2 10 10 7 12 8 12 5 4 2 6 11 10 10 17 2 6 8 14 16 16 24 16 28 21 16 15 16 21 17 16 17 17
1 2 2 3 10 16 8 13 22 10 13 14 8 11 9 10 12 9 10 8 7 3 11 4 3 6 3 3 4 4 11 21 26 29 23 26 23 4 11 13 17 20 20 19 19
0 2 2 2 5 7 5 6 9 11 3 1 10 10 12 8 6 3 4 9 10 11 9 8 7 4 7 5 5 5 26 17 17 21 22 24 35 8 9 15 18 21 24 24 21
Wind_Direction
184 175 174 189 197 201 195 195 196 173 178 186 173 161 169 158 126 154 219 237 168 166 129 133 204 139 152 126 182 235 145 166 155 167 134 150 163 136 101 153 168 170 2 47 138
187 183 171 179 188 194 188 186 206 181 172 180 179 162 177 170 194 218 220 207 206 156 159 171 183 168 148 142 175 219 167 161 168 145 154 163 178 150 182 172 177 176 129 136 149
184 185 174 172 181 182 184 174 187 180 171 163 189 166 177 178 218 232 185 205 185 164 101 182 156 207 156 170 175 201 145 144 151 145 151 151 169 153 164 200 211 200 167 161 168
187 180 179 171 170 174 173 171 157 167 155 161 200 163 176 200 210 108 252 179 164 160 135 152 174 184 181 171 181 155 92 136 137 133 143 160 135 178 208 113 57 221 167 163 179
184 178 174 167 169 163 168 170 157 167 162 169 194 174 175 186 250 105 127 135 151 166 167 180 183 168 181 154 145 132 133 94 111 121 103 133 132 48 232 194 101 139 170 184 188
173 176 172 167 164 155 156 168 156 164 162 160 186 172 161 203 65 128 136 128 182 181 173 182 201 192 122 149 185 90 121 121 123 116 100 180 127 239 130 235 202 169 191 197 198
175 172 166 159 171 156 151 152 159 162 159 163 179 207 180 214 104 122 157 166 181 195 167 186 160 195 139 125 135 130 107 115 95 129 109 166 206 227 107 66 209 211 198 207 216
171 170 166 155 161 151 146 142 143 158 152 155 161 144 236 21 148 130 154 91 122 209 215 143 143 100 30 125 74 112 132 163 124 174 50 223 224 224 25 249 233 215 214 216 218
171 164 165 153 157 146 138 135 138 143 140 144 153 175 252 149 173 153 160 145 125 94 59 97 84 89 153 153 126 11 166 183 155 208 150 229 221 137 118 224 246 227 225 229 226
171 162 166 156 154 142 128 131 127 121 115 150 83 164 168 209 145 141 107 138 134 137 116 68 99 152 168 196 193 169 133 162 177 161 221 198 245 197 208 222 254 234 222 236 236
162 168 159 155 151 141 131 133 137 146 191 193 184 155 142 108 115 176 152 126 123 169 169 92 198 193 186 193 144 141 155 146 107 96 212 228 261 250 218 242 240 242 237 240 251
161 166 158 155 154 147 162 183 174 133 162 165 303 307 116 174 131 163 169 166 169 174 147 161 217 186 153 141 130 138 143 131 95 92 219 348 272 263 239 236 230 239 242 244 240
161 162 161 156 155 150 183 179 165 183 124 170 201 179 164 176 168 175 185 146 171 165 189 192 169 161 155 170 157 161 172 155 119 142 65 295 262 250 207 247 230 205 253 262 264
161 160 158 153 155 170 186 168 126 213 121 178 208 222 136 183 165 87 187 152 128 187 170 210 102 171 165 184 185 187 185 137 131 162 232 300 276 263 227 240 226 204 189 171 156
175 163 161 160 131 171 158 157 128 19 193 159 162 67 147 174 132 201 116 77 158 154 178 164 170 172 193 184 181 161 139 131 113 122 222 151 268 236 176 253 225 192 159 155 127
177 169 158 151 133 161 149 134 90 111 218 164 153 172 149 155 92 115 157 67 90 111 48 115 342 228 166 76 158 144 108 79 87 137 247 214 229 229 216 217 157 165 165 155 136
180 168 164 154 155 155 151 100 112 200 134 175 178 179 172 161 124 170 179 176 169 164 181 139 165 157 162 104 136 177 155 123 172 192 241 112 211 259 230 213 197 179 168 159 152
176 165 169 157 147 140 126 117 192 179 194 105 144 155 176 147 198 162 166 190 223 188 158 183 195 178 172 188 170 178 189 169 178 189 186 111 227 243 241 131 180 163 154 153 148
168 166 160 148 143 139 142 179 208 174 172 145 142 160 179 203 176 168 197 201 196 195 185 179 205 155 143 150 163 173 206 84 100 62 194 207 259 267 189 190 181 166 165 166 158
174 161 162 150 149 162 167 191 219 177 144 159 170 191 179 186 177 195 180 203 198 196 236 177 152 45 135 148 47 212 144 155 171 166 222 220 264 239 203 207 193 187 183 170 160
36 145 151 150 146 167 195 192 163 178 164 171 162 146 186 177 195 195 196 199 186 175 205 137 103 123 160 211 182 151 187 137 159 199 202 243 245 210 208 194 192 188 178 168 167
45 118 188 155 161 190 201 183 138 158 205 143 126 123 175 171 182 194 210 207 174 161 191 165 110 153 196 39 321 302 200 187 185 206 241 355 258 157 231 193 182 174 169 164 160
71 81 10 177 170 188 137 195 184 161 183 174 147 172 167 167 182 208 201 188 170 173 181 175 182 125 132 211 220 217 193 212 223 56 200 196 255 124 104 167 170 166 167 165 164
120 116 26 131 276 180 160 183 186 186 167 165 140 127 142 173 204 193 189 162 178 196 158 162 127 205 208 209 141 198 199 209 198 180 221 223 253 164 168 181 178 176 172 168 172
5 111 77 154 171 180 176 173 176 166 187 173 125 199 175 158 189 180 186 154 101 191 161 177 205 206 236 229 173 195 188 195 204 224 214 237 242 240 195 194 194 176 168 174 180
103 125 87 90 137 151 164 183 184 160 165 184 176 188 183 192 199 168 150 177 167 148 188 184 201 150 187 211 205 198 212 200 210 224 228 246 255 298 192 189 177 184 180 184 183
115 74 347 88 132 143 170 139 175 143 14 52 185 171 198 169 118 93 83 152 151 156 179 164 138 135 218 131 111 271 224 203 224 230 220 231 241 173 185 191 189 190 192 187 180